Weather History for KMHK - October, 2012

Change the Weather History Date:

Tuesday, October 16, 2012

  Actual Average Record
Temperature  
Mean Temperature 69 °F 55 °F  
Max Temperature 81 °F 68 °F 82 °F (1996)
Min Temperature 57 °F 42 °F 28 °F (2001)
Degree Days  
Heating Degree Days 0 10  
Month to date heating degree days 156 131  
Since 1 July heating degree days 238 201  
Cooling Degree Days 4 0  
Month to date cooling degree days 7 21  
Year to date cooling degree days 1771 1358  
Growing Degree Days 19 (Base 50)    
Moisture  
Dew Point 47 °F    
Average Humidity 53    
Maximum Humidity 78    
Minimum Humidity 28    
Precipitation  
Precipitation 0.00 in 0.08 in 0.28 in (1998)
Month to date precipitation 0.41 1.26  
Year to date precipitation 20.62 28.97  
Sea Level Pressure  
Sea Level Pressure 29.59 in    
Wind  
Wind Speed 8 mph (SW)    
Max Wind Speed 20 mph    
Max Gust Speed 25 mph    
Visibility 10 miles    
Events      
T = Trace of Precipitation, MM = Missing Value Source: NWS Daily Summary

Daily Weather History Graph

Daily Weather History Graph

Search for Another Location

Airport or City:

Trip Planner

Search our weather history database for the weather conditions in past years. The results will help you decide how hot, cold, wet, or windy it might be!

Date:

Astronomy

Oct. 16, 2012 Rise Set
Actual Time 7:37 AM CDT 6:45 PM CDT
Civil Twilight 7:10 AM CDT 7:12 PM CDT
Nautical Twilight 6:39 AM CDT 7:43 PM CDT
Astronomical Twilight 6:08 AM CDT 8:14 PM CDT
Moon 9:01 AM CDT (10/16) 7:32 PM CDT (10/16)
Length of Visible Light 12h 01m
Length of Day
11h 07m
New Moon, 2% of the Moon is Illuminated
Oct 16
New Moon
Oct 21
First Quarter
Oct 29
Full
Nov 6
Last Quarter
Nov 13
New

Hourly Weather History & Observations

Time (CDT) Temp. Dew Point Humidity Pressure Visibility Wind Dir Wind Speed Gust Speed Precip Events Conditions
12:52 AM 68.0 °F 48.9 °F 50% 29.71 in 10.0 mi SW 16.1 mph 24.2 mph N/A   Clear
1:52 AM 66.9 °F 48.0 °F 51% 29.69 in 10.0 mi SSW 13.8 mph - N/A   Clear
2:52 AM 60.1 °F 46.9 °F 62% 29.68 in 10.0 mi SW 6.9 mph - N/A   Clear
3:52 AM 61.0 °F 46.9 °F 60% 29.66 in 10.0 mi SSW 8.1 mph - N/A   Clear
4:52 AM 64.0 °F 46.9 °F 54% 29.65 in 10.0 mi SW 12.7 mph - N/A   Clear
5:52 AM 63.0 °F 46.0 °F 54% 29.65 in 10.0 mi SW 13.8 mph - N/A   Clear
6:52 AM 61.0 °F 46.0 °F 58% 29.68 in 10.0 mi SW 10.4 mph - N/A   Clear
7:52 AM 60.1 °F 46.0 °F 60% 29.66 in 10.0 mi SSW 10.4 mph - N/A   Clear
8:52 AM 64.0 °F 46.9 °F 54% 29.65 in 10.0 mi SW 13.8 mph - N/A   Clear
9:52 AM 66.0 °F 46.9 °F 50% 29.66 in 10.0 mi SW 13.8 mph 23.0 mph N/A   Clear
10:52 AM 71.1 °F 46.9 °F 42% 29.65 in 10.0 mi WSW 13.8 mph 20.7 mph N/A   Clear
11:52 AM 73.0 °F 46.0 °F 38% 29.65 in 10.0 mi WSW 12.7 mph 19.6 mph N/A   Clear
12:52 PM 75.9 °F 44.1 °F 32% 29.62 in 10.0 mi West 9.2 mph - N/A   Clear
1:52 PM 78.1 °F 46.0 °F 32% 29.58 in 10.0 mi SW 9.2 mph - N/A   Clear
2:52 PM 79.0 °F 45.0 °F 30% 29.55 in 10.0 mi SSW 6.9 mph - N/A   Clear
3:52 PM 80.1 °F 44.1 °F 28% 29.52 in 10.0 mi SSW 6.9 mph - N/A   Clear
4:52 PM 81.0 °F 45.0 °F 28% 29.51 in 10.0 mi WSW 10.4 mph - N/A   Clear
5:52 PM 78.1 °F 46.9 °F 33% 29.49 in 10.0 mi WSW 5.8 mph - N/A   Clear
6:52 PM 66.0 °F 48.0 °F 52% 29.49 in 10.0 mi Calm Calm - N/A   Clear
7:52 PM 64.0 °F 48.0 °F 56% 29.50 in 10.0 mi Calm Calm - N/A   Clear
8:52 PM 57.9 °F 50.0 °F 75% 29.49 in 10.0 mi Calm Calm - N/A   Clear
9:52 PM 59.0 °F 50.0 °F 72% 29.48 in 10.0 mi Calm Calm - N/A   Clear
10:52 PM 59.0 °F 51.1 °F 75% 29.47 in 10.0 mi Calm Calm - N/A   Clear
11:52 PM 61.0 °F 53.1 °F 75% 29.46 in 10.0 mi Calm Calm - N/A   Clear